Regional Weather Roundup
Issued by NWS

Home | Current Version | Previous Version | Graphics & Text | Print | Product List | Glossary On
Versions: 1 2 3 4 5 6 7 8 9 10 11 12 13 14 15 16 17 18 19 20 21 22 23 24 25 26 27
000
ASUS45 KSLC 170110
RWRUT

UTAH REGIONAL WEATHER ROUNDUP
NATIONAL WEATHER SERVICE SALT LAKE CITY UT
600 PM MST SAT DEC 16 2017

UTZ001>011-023>025-170200-

NORTHERN UTAH

CITY           SKY/WX    TMP DP  RH WIND       PRES   REMARKS
BRIGHAM CITY   CLOUDY    31  27  83 N7        29.99R WCI  25
HILL AFB       LGT SNOW  28  28 100 NW9       29.95S FOG     WCI  20
LOGAN          LGT SNOW  31  26  82 N7        29.98R WCI  24
OGDEN          LGT SNOW  30  28  92 N9        29.96R FOG     WCI  22
SALT LAKE CITY FLURRIES  33  30  88 NW9       29.98R WCI  25
TOOELE VALLEY  LGT SNOW  32  30  93 NW3       30.00R
WENDOVER       PTCLDY    32  17  54 NE9       30.01R WCI  24
HEBER CITY     CLOUDY    32  25  74 SW9       29.86R WCI  24
WEST JORDAN    CLOUDY    30  29  99 NW10      29.98R WCI  21

$$

UTZ011>015-024>027-170200-

CENTRAL/NORTHEAST UTAH

CITY           SKY/WX    TMP DP  RH WIND       PRES   REMARKS
PROVO AIRPORT  CLOUDY    33  27  78 NW16      29.94R WCI  23
MOAB/CANYONLAN MOCLDY    31   8  38 NW3       29.79R
DELTA          CLOUDY    30  28  93 N9        29.95R WCI  22
PRICE          MOCLDY    33  15  47 N6        29.79R WCI  28
RICHFIELD      CLOUDY    34  25  69 N3G12     29.92R
ROOSEVELT      CLOUDY    32  14  47 W3        29.82R
VERNAL         CLOUDY    30  13  49 SE3       29.79R

$$

UTZ013>016-019>022-027-170200-

SOUTHERN UTAH

CITY           SKY/WX    TMP DP  RH WIND       PRES   REMARKS
BRYCE CANYON   MOCLDY    30   9  41 NW10      29.81R WCI  21
CEDAR CITY     CLOUDY    32  25  75 N13G21    29.86R WCI  22
MILFORD        FLURRIES  31  28  89 N15       29.92R WCI  20
ST GEORGE      CLOUDY    50  21  32 NE14      29.79R
HANKSVILLE     MOCLDY    32   9  37 CALM      29.83R
BLANDING         N/A     34  10  36 CALM      29.87R

$$

REGIONAL REPORTS     COLORADO/ARIZONA

CITY           SKY/WX    TMP DP  RH WIND       PRES   REMARKS
CRAIG, CO      CLOUDY    25  16  68 CALM      29.80R
GRAND JUNCTION CLOUDY    32   9  38 CALM      29.79R
RIFLE, CO      CLOUDY    32  10  40 SE3       29.79R
MONTROSE, CO   CLOUDY    33   7  33 CALM      29.80R
CORTEZ, CO     CLOUDY    31  10  41 CALM      29.79S
COLORADO CITY    N/A     41   9  26 NW6       29.82R
PAGE, AZ       MOCLDY    38  13  35 CALM      29.78R
GRAND CANYON   MOCLDY    34   6  31 CALM      29.81R
KINGMAN, AZ    CLOUDY    46   9  22 E6        29.78R
FLAGSTAFF, AZ  CLOUDY    36   7  29 SW6       29.82R WCI  31

$$

REGIONAL REPORTS    NEVADA/IDAHO/WYOMING

CITY           SKY/WX    TMP DP  RH WIND       PRES   REMARKS
LAS VEGAS, NV  CLOUDY    59  16  18 CALM      29.75R
ELY, NY        CLOUDY    27  22  81 N9        29.95R WCI  18
ELKO, NV       CLOUDY    31  17  56 NW9       30.06R WCI  23
POCATELLO, ID  CLOUDY    27  25  92 SW9       30.04R WCI  18
BURLEY, ID     CLOUDY    31  25  78 SW9       30.05R WCI  23
FORT BRIDGER,  FLURRIES  29  27  92 W10       29.87R WCI  20
EVANSTON, WY   LGT SNOW  24  24 100 N12       29.86R FOG     WCI  13
ROCK SPRINGS,  CLOUDY    30  24  78 N5        29.82R WCI  25

$$




USA.gov is the U.S. government's official web portal to all federal, state and local government web resources and services.